This is the latest recevied weather packets stored in our database for station/object R1ZCU-14. If no packets are shown the sender has not sent any weather packets the latest 10 day(s).
| Time | Temp. | Humidity | Pressure | Rain* | Wind** | Luminosity | Snow |
|---|---|---|---|---|---|---|---|
| 1778257543 | 6.67° C | 45% | 1018.6 hPa | - | - | - | - |
| 1778256943 | 6.67° C | 46% | 1018.5 hPa | - | - | - | - |
| 1778256342 | 6.67° C | 47% | 1018.4 hPa | - | - | - | - |
| 1778255742 | 6.67° C | 48% | 1018.5 hPa | - | - | - | - |
| 1778255141 | 6.67° C | 47% | 1018.3 hPa | - | - | - | - |
| 1778254541 | 6.67° C | 49% | 1018.4 hPa | - | - | - | - |
| 1778253940 | 6.67° C | 49% | 1018.2 hPa | - | - | - | - |
| 1778253340 | 6.67° C | 45% | 1018.1 hPa | - | - | - | - |
| 1778252739 | 7.22° C | 42% | 1018.1 hPa | - | - | - | - |
| 1778252139 | 7.78° C | 40% | 1017.9 hPa | - | - | - | - |
| 1778251538 | 7.22° C | 41% | 1018 hPa | - | - | - | - |
| 1778250938 | 7.22° C | 42% | 1018 hPa | - | - | - | - |
| 1778250337 | 7.78° C | 40% | 1018 hPa | - | - | - | - |
| 1778249737 | 7.78° C | 38% | 1017.9 hPa | - | - | - | - |
| 1778249136 | 7.78° C | 35% | 1017.9 hPa | - | - | - | - |
| 1778248536 | 7.78° C | 37% | 1017.9 hPa | - | - | - | - |
| 1778247935 | 7.78° C | 37% | 1017.8 hPa | - | - | - | - |
| 1778247335 | 7.78° C | 34% | 1017.7 hPa | - | - | - | - |
| 1778246734 | 7.22° C | 34% | 1017.7 hPa | - | - | - | - |
| 1778246134 | 7.22° C | 34% | 1017.7 hPa | - | - | - | - |
| 1778245533 | 7.22° C | 35% | 1017.6 hPa | - | - | - | - |
| 1778244933 | 7.78° C | 34% | 1017.7 hPa | - | - | - | - |
| 1778244332 | 7.78° C | 34% | 1017.7 hPa | - | - | - | - |
| 1778243732 | 7.78° C | 33% | 1017.6 hPa | - | - | - | - |
| 1778243131 | 7.78° C | 32% | 1017.4 hPa | - | - | - | - |
* Rain since midnight (hover to see other rain measurements)
** Current wind speed in m/s (hover to see current wind gust speed)